ALTAIR

Last updated on Fri May 26 2017 00:15:03 GMT+0000 (Coordinated Universal Time)

1 42711U 98067LS 17144.32056561 .00008022 00000-0 12586-3 0 9997 2 42711 51.6415 157.2378 0005173 167.5333 290.6373 15.54658526 799
UTC large
Height (km)
Speed (km/s)
/
Latitude / Longitude
Inclination (degrees)
Orbital Period (minutes)
Azimuth
Elevation
Range (km)
Doppler Factor

Next 0 passes for location: London (51.5072 / 0.1276)

Sorry there are no passes over London.